| time (UTC) | temp C | wind direction | speed KPH | gust KPH | rain 1hr cm | rain 24hr cm | rain mn cm | humidity % | barometer mb |
| 20260507001332 | 21 | 198 | 3.2 | 11.3 | 0.00 | 0.00 | 0.00 | 62 | 1017.6 |
| 20260507000811 | 21 | 212 | 6.4 | 12.9 | 0.00 | 0.00 | 0.00 | 61 | 1017.6 |
| 20260507000249 | 21 | 293 | 4.8 | 14.5 | 0.00 | 0.00 | 0.00 | 61 | 1017.7 |
| 20260506235727 | 21 | 232 | 6.4 | 16.1 | 0.00 | 0.00 | 0.00 | 60 | 1017.8 |
| 20260506234459 | 21 | 63 | 3.2 | 14.5 | 0.00 | 0.00 | 0.00 | 61 | 1017.7 |
| 20260506233937 | 21 | 260 | 8.0 | 16.1 | 0.00 | 0.00 | 0.00 | 61 | 1017.7 |
| 20260506232707 | 21 | 315 | 8.0 | 16.1 | 0.00 | 0.00 | 0.00 | 60 | 1017.7 |
| 20260506232145 | 21 | 248 | 6.4 | 12.9 | 0.00 | 0.00 | 0.00 | 60 | 1017.9 |
| 20260506231623 | 21 | 299 | 3.2 | 12.9 | 0.00 | 0.00 | 0.00 | 61 | 1017.9 |
| 20260506230355 | 21 | 244 | 6.4 | 14.5 | 0.00 | 0.00 | 0.00 | 60 | 1017.9 |
| 20260506225125 | 21 | 291 | 4.8 | 12.9 | 0.00 | 0.00 | 0.00 | 62 | 1018.1 |
| 20260506224603 | 21 | 235 | 4.8 | 14.5 | 0.00 | 0.00 | 0.00 | 62 | 1018.2 |
| 20260506224041 | 21 | 259 | 6.4 | 14.5 | 0.00 | 0.00 | 0.00 | 62 | 1018.3 |
| 20260506223519 | 21 | 326 | 6.4 | 12.9 | 0.00 | 0.00 | 0.00 | 63 | 1018.3 |
| 20260506222959 | 21 | 301 | 6.4 | 12.9 | 0.00 | 0.00 | 0.00 | 63 | 1018.3 |
| 20260506222437 | 21 | 319 | 6.4 | 17.7 | 0.00 | 0.00 | 0.00 | 62 | 1018.4 |
| 20260506221915 | 21 | 304 | 9.7 | 16.1 | 0.00 | 0.00 | 0.00 | 60 | 1018.5 |
| 20260506221355 | 21 | 257 | 11.3 | 19.3 | 0.00 | 0.00 | 0.00 | 61 | 1018.5 |
| 20260506220833 | 21 | 237 | 6.4 | 17.7 | 0.00 | 0.00 | 0.00 | 60 | 1018.6 |
| 20260506215603 | 22 | 267 | 6.4 | 14.5 | 0.00 | 0.00 | 0.00 | 60 | 1018.8 |
| 20260506215043 | 22 | 211 | 4.8 | 14.5 | 0.00 | 0.00 | 0.00 | 59 | 1018.8 |
| 20260506213813 | 22 | 283 | 8.0 | 16.1 | 0.00 | 0.00 | 0.00 | 57 | 1018.9 |
| 20260506213251 | 22 | 234 | 3.2 | 12.9 | 0.00 | 0.00 | 0.00 | 58 | 1018.8 |
| 20260506212729 | 22 | 282 | 1.6 | 11.3 | 0.00 | 0.00 | 0.00 | 60 | 1018.9 |
| 20260506212207 | 22 | 322 | 4.8 | 11.3 | 0.00 | 0.00 | 0.00 | 59 | 1019.0 |
| 20260506210939 | 22 | 316 | 3.2 | 11.3 | 0.00 | 0.00 | 0.00 | 59 | 1019.1 |
| 20260506210417 | 22 | 305 | 4.8 | 11.3 | 0.00 | 0.00 | 0.00 | 58 | 1019.1 |
| 20260506205855 | 22 | 310 | 4.8 | 14.5 | 0.00 | 0.00 | 0.00 | 57 | 1019.1 |
| 20260506204625 | 22 | 332 | 4.8 | 9.7 | 0.00 | 0.00 | 0.00 | 57 | 1019.2 |
| 20260506204103 | 22 | 315 | 1.6 | 9.7 | 0.00 | 0.00 | 0.00 | 59 | 1019.3 |
| 20260506203541 | 22 | 321 | 4.8 | 11.3 | 0.00 | 0.00 | 0.00 | 58 | 1019.4 |
| 20260506203019 | 22 | 316 | 4.8 | 9.7 | 0.00 | 0.00 | 0.00 | 58 | 1019.5 |
| 20260506202457 | 22 | 292 | 3.2 | 11.3 | 0.00 | 0.00 | 0.00 | 58 | 1019.5 |
| 20260506200519 | 21 | 336 | 4.8 | 11.3 | 0.00 | 0.00 | 0.00 | 60 | 1019.8 |
| 20260506195957 | 21 | 288 | 4.8 | 9.7 | 0.00 | 0.00 | 0.00 | 62 | 1019.8 |
| 20260506195435 | 21 | 305 | 3.2 | 8.0 | 0.00 | 0.00 | 0.00 | 61 | 1019.8 |
| 20260506194913 | 21 | 357 | 3.2 | 9.7 | 0.00 | 0.00 | 0.00 | 61 | 1019.9 |
| 20260506194351 | 21 | 335 | 4.8 | 11.3 | 0.00 | 0.00 | 0.00 | 61 | 1019.9 |
| 20260506193829 | 20 | 314 | 3.2 | 8.0 | 0.00 | 0.00 | 0.00 | 62 | 1020.0 |
| 20260506193307 | 20 | 265 | 4.8 | 9.7 | 0.00 | 0.00 | 0.00 | 62 | 1020.1 |
| 20260506192037 | 20 | 327 | 4.8 | 11.3 | 0.00 | 0.00 | 0.00 | 63 | 1020.2 |
| 20260506191515 | 20 | 192 | 3.2 | 9.7 | 0.00 | 0.00 | 0.00 | 64 | 1020.3 |
| 20260506190245 | 20 | 317 | 4.8 | 12.9 | 0.00 | 0.00 | 0.00 | 63 | 1020.4 |
| 20260506185725 | 20 | 279 | 4.8 | 8.0 | 0.00 | 0.00 | 0.00 | 63 | 1020.5 |
| 20260506185203 | 20 | 88 | 1.6 | 8.0 | 0.00 | 0.00 | 0.00 | 64 | 1020.4 |
| 20260506184641 | 20 | 119 | 3.2 | 9.7 | 0.00 | 0.00 | 0.00 | 65 | 1020.4 |
| 20260506184121 | 20 | 213 | 3.2 | 6.4 | 0.00 | 0.00 | 0.00 | 66 | 1020.5 |
| 20260506183559 | 19 | 236 | 3.2 | 9.7 | 0.00 | 0.00 | 0.00 | 67 | 1020.5 |
| 20260506182329 | 19 | 128 | 3.2 | 8.0 | 0.00 | 0.00 | 0.00 | 67 | 1020.6 |
| 20260506181809 | 18 | 222 | 4.8 | 8.0 | 0.00 | 0.00 | 0.00 | 68 | 1020.6 |
| 20260506181247 | 18 | 79 | 3.2 | 6.4 | 0.00 | 0.00 | 0.00 | 69 | 1020.6 |
| 20260506180725 | 18 | 348 | 3.2 | 6.4 | 0.00 | 0.00 | 0.00 | 69 | 1020.6 |
| 20260506175455 | 18 | 316 | 1.6 | 8.0 | 0.00 | 0.00 | 0.00 | 71 | 1020.6 |
| 20260506174933 | 17 | 301 | 1.6 | 8.0 | 0.00 | 0.00 | 0.00 | 71 | 1020.5 |
| 20260506174413 | 17 | 285 | 3.2 | 6.4 | 0.00 | 0.00 | 0.00 | 72 | 1020.6 |
| 20260506173851 | 17 | 121 | 1.6 | 6.4 | 0.00 | 0.00 | 0.00 | 72 | 1020.6 |
| 20260506173329 | 17 | 299 | 3.2 | 6.4 | 0.00 | 0.00 | 0.00 | 72 | 1020.6 |
| 20260506171351 | 17 | 28 | 3.2 | 6.4 | 0.00 | 0.00 | 0.00 | 74 | 1020.7 |
| 20260506170121 | 16 | 311 | 1.6 | 3.2 | 0.00 | 0.00 | 0.00 | 74 | 1020.8 |
| 20260506165600 | 16 | 0 | 0.0 | 3.2 | 0.00 | 0.00 | 0.00 | 74 | 1020.8 |
| 20260506164331 | 16 | 0 | 0.0 | 3.2 | 0.00 | 0.00 | 0.00 | 75 | 1020.7 |
| 20260506163809 | 16 | 0 | 0.0 | 6.4 | 0.00 | 0.00 | 0.00 | 75 | 1020.8 |
| 20260506163247 | 16 | 313 | 1.6 | 4.8 | 0.00 | 0.00 | 0.00 | 75 | 1020.8 |
| 20260506162017 | 15 | 292 | 1.6 | 4.8 | 0.00 | 0.00 | 0.00 | 77 | 1020.8 |
| 20260506160747 | 15 | 0 | 0.0 | 1.6 | 0.00 | 0.00 | 0.00 | 78 | 1020.8 |
| 20260506160227 | 15 | 0 | 0.0 | 0.0 | 0.00 | 0.00 | 0.00 | 79 | 1020.8 |
| 20260506155705 | 15 | 0 | 0.0 | 0.0 | 0.00 | 0.00 | 0.00 | 79 | 1020.8 |
| 20260506155143 | 15 | 300 | 1.6 | 4.8 | 0.00 | 0.00 | 0.00 | 80 | 1020.8 |
| 20260506154623 | 15 | 297 | 1.6 | 4.8 | 0.00 | 0.00 | 0.00 | 80 | 1020.7 |
| 20260506154101 | 14 | 294 | 1.6 | 4.8 | 0.00 | 0.00 | 0.00 | 81 | 1020.7 |
| 20260506153541 | 14 | 298 | 1.6 | 6.4 | 0.00 | 0.00 | 0.00 | 81 | 1020.7 |
| 20260506153021 | 14 | 246 | 1.6 | 8.0 | 0.00 | 0.00 | 0.00 | 82 | 1020.7 |
| 20260506151751 | 14 | 273 | 1.6 | 4.8 | 0.00 | 0.00 | 0.00 | 84 | 1020.6 |
| 20260506151229 | 13 | 273 | 1.6 | 6.4 | 0.00 | 0.00 | 0.00 | 85 | 1020.6 |
| 20260506150707 | 13 | 271 | 1.6 | 3.2 | 0.00 | 0.00 | 0.00 | 85 | 1020.7 |
| 20260506150145 | 13 | 271 | 1.6 | 4.8 | 0.00 | 0.00 | 0.00 | 85 | 1020.7 |
| 20260506145623 | 13 | 256 | 1.6 | 3.2 | 0.00 | 0.00 | 0.00 | 86 | 1020.6 |
| 20260506145101 | 13 | 0 | 0.0 | 1.6 | 0.00 | 0.00 | 0.00 | 86 | 1020.6 |
| 20260506144539 | 13 | 0 | 0.0 | 4.8 | 0.00 | 0.00 | 0.00 | 86 | 1020.6 |
| 20260506144017 | 13 | 256 | 1.6 | 6.4 | 0.00 | 0.00 | 0.00 | 87 | 1020.6 |
| 20260506143457 | 13 | 258 | 1.6 | 3.2 | 0.00 | 0.00 | 0.00 | 87 | 1020.6 |
| 20260506142937 | 13 | 258 | 1.6 | 3.2 | 0.00 | 0.00 | 0.00 | 87 | 1020.5 |
| 20260506141707 | 13 | 0 | 0.0 | 0.0 | 0.00 | 0.00 | 0.00 | 87 | 1020.5 |
| 20260506141145 | 13 | 0 | 0.0 | 0.0 | 0.00 | 0.00 | 0.00 | 87 | 1020.4 |
| 20260506140625 | 13 | 0 | 0.0 | 0.0 | 0.00 | 0.00 | 0.00 | 87 | 1020.3 |
| 20260506140103 | 12 | 0 | 0.0 | 0.0 | 0.00 | 0.00 | 0.00 | 87 | 1020.2 |
| 20260506135541 | 12 | 0 | 0.0 | 0.0 | 0.00 | 0.00 | 0.00 | 87 | 1020.2 |
| 20260506135019 | 12 | 0 | 0.0 | 0.0 | 0.00 | 0.00 | 0.00 | 87 | 1020.1 |
| 20260506134457 | 12 | 0 | 0.0 | 0.0 | 0.00 | 0.00 | 0.00 | 87 | 1020.1 |
| 20260506133935 | 12 | 0 | 0.0 | 0.0 | 0.00 | 0.00 | 0.00 | 87 | 1020.1 |
| 20260506133413 | 12 | 0 | 0.0 | 0.0 | 0.00 | 0.00 | 0.00 | 87 | 1020.0 |
| 20260506132143 | 12 | 0 | 0.0 | 0.0 | 0.00 | 0.00 | 0.00 | 86 | 1019.8 |
| 20260506131621 | 12 | 0 | 0.0 | 0.0 | 0.00 | 0.00 | 0.00 | 86 | 1019.7 |
| 20260506131059 | 12 | 0 | 0.0 | 0.0 | 0.00 | 0.00 | 0.00 | 86 | 1019.8 |
| 20260506130537 | 12 | 0 | 0.0 | 0.0 | 0.00 | 0.00 | 0.00 | 86 | 1019.8 |
| 20260506130015 | 12 | 0 | 0.0 | 0.0 | 0.00 | 0.00 | 0.00 | 86 | 1019.7 |
| 20260506125455 | 12 | 0 | 0.0 | 0.0 | 0.00 | 0.00 | 0.00 | 85 | 1019.7 |
| 20260506124225 | 12 | 0 | 0.0 | 0.0 | 0.00 | 0.00 | 0.00 | 85 | 1019.6 |
| 20260506123705 | 12 | 0 | 0.0 | 0.0 | 0.00 | 0.00 | 0.00 | 85 | 1019.6 |
| 20260506123143 | 12 | 0 | 0.0 | 0.0 | 0.00 | 0.00 | 0.00 | 85 | 1019.5 |
| 20260506122621 | 12 | 0 | 0.0 | 0.0 | 0.00 | 0.00 | 0.00 | 85 | 1019.6 |
| 20260506122059 | 12 | 0 | 0.0 | 0.0 | 0.00 | 0.00 | 0.00 | 85 | 1019.6 |
| 20260506121537 | 12 | 0 | 0.0 | 0.0 | 0.00 | 0.00 | 0.00 | 85 | 1019.5 |
| 20260506121017 | 12 | 0 | 0.0 | 0.0 | 0.00 | 0.00 | 0.00 | 85 | 1019.5 |
| 20260506120455 | 12 | 0 | 0.0 | 0.0 | 0.00 | 0.00 | 0.00 | 85 | 1019.5 |
| 20260506115933 | 12 | 0 | 0.0 | 0.0 | 0.00 | 0.00 | 0.00 | 85 | 1019.4 |
| 20260506115413 | 12 | 0 | 0.0 | 0.0 | 0.00 | 0.00 | 0.00 | 85 | 1019.3 |
| 20260506114143 | 12 | 0 | 0.0 | 0.0 | 0.00 | 0.03 | 0.00 | 85 | 1019.2 |
| 20260506113623 | 12 | 0 | 0.0 | 0.0 | 0.00 | 0.03 | 0.00 | 84 | 1019.2 |
| 20260506112355 | 12 | 0 | 0.0 | 0.0 | 0.00 | 0.03 | 0.00 | 84 | 1019.1 |
| 20260506111835 | 12 | 0 | 0.0 | 0.0 | 0.00 | 0.03 | 0.00 | 84 | 1019.1 |
| 20260506111313 | 12 | 0 | 0.0 | 0.0 | 0.00 | 0.03 | 0.00 | 84 | 1019.1 |
| 20260506110751 | 13 | 0 | 0.0 | 0.0 | 0.00 | 0.03 | 0.00 | 84 | 1019.1 |
| 20260506110229 | 13 | 0 | 0.0 | 0.0 | 0.00 | 0.03 | 0.00 | 84 | 1019.1 |
| 20260506105709 | 13 | 0 | 0.0 | 0.0 | 0.00 | 0.03 | 0.00 | 84 | 1019.0 |
| 20260506105149 | 13 | 0 | 0.0 | 0.0 | 0.00 | 0.03 | 0.00 | 84 | 1019.1 |
| 20260506104627 | 13 | 0 | 0.0 | 0.0 | 0.00 | 0.03 | 0.00 | 84 | 1019.0 |
| 20260506104105 | 13 | 0 | 0.0 | 0.0 | 0.00 | 0.03 | 0.00 | 83 | 1019.0 |
| 20260506103543 | 13 | 0 | 0.0 | 0.0 | 0.00 | 0.03 | 0.00 | 83 | 1018.9 |
| 20260506101607 | 13 | 0 | 0.0 | 0.0 | 0.00 | 0.05 | 0.00 | 83 | 1018.8 |
| 20260506101047 | 13 | 0 | 0.0 | 0.0 | 0.00 | 0.05 | 0.00 | 83 | 1018.9 |
| 20260506100527 | 13 | 0 | 0.0 | 0.0 | 0.00 | 0.05 | 0.00 | 83 | 1018.8 |
| 20260506100005 | 13 | 0 | 0.0 | 0.0 | 0.00 | 0.05 | 0.00 | 83 | 1018.8 |
| 20260506095443 | 13 | 0 | 0.0 | 0.0 | 0.00 | 0.05 | 0.00 | 83 | 1018.8 |
| 20260506094923 | 13 | 0 | 0.0 | 0.0 | 0.00 | 0.05 | 0.00 | 83 | 1018.8 |
| 20260506094401 | 13 | 0 | 0.0 | 0.0 | 0.00 | 0.05 | 0.00 | 82 | 1018.8 |
| 20260506093841 | 13 | 0 | 0.0 | 0.0 | 0.00 | 0.05 | 0.00 | 82 | 1019.0 |
| 20260506092613 | 13 | 0 | 0.0 | 0.0 | 0.00 | 0.05 | 0.00 | 82 | 1018.9 |
| 20260506092053 | 13 | 0 | 0.0 | 0.0 | 0.00 | 0.05 | 0.00 | 82 | 1018.9 |
| 20260506091531 | 13 | 0 | 0.0 | 0.0 | 0.00 | 0.05 | 0.00 | 82 | 1018.8 |
| 20260506090301 | 13 | 0 | 0.0 | 0.0 | 0.00 | 0.08 | 0.00 | 82 | 1018.8 |
| 20260506085741 | 13 | 0 | 0.0 | 0.0 | 0.00 | 0.08 | 0.00 | 82 | 1018.8 |
| 20260506085219 | 13 | 0 | 0.0 | 0.0 | 0.00 | 0.08 | 0.00 | 82 | 1018.8 |
| 20260506083951 | 13 | 0 | 0.0 | 0.0 | 0.00 | 0.10 | 0.00 | 82 | 1018.8 |
| 20260506083431 | 13 | 0 | 0.0 | 0.0 | 0.00 | 0.10 | 0.00 | 82 | 1018.9 |
| 20260506082200 | 13 | 0 | 0.0 | 0.0 | 0.00 | 0.10 | 0.00 | 82 | 1019.0 |
| 20260506080931 | 13 | 0 | 0.0 | 1.6 | 0.00 | 0.10 | 0.00 | 82 | 1018.9 |
| 20260506080411 | 13 | 0 | 0.0 | 3.2 | 0.00 | 0.10 | 0.00 | 82 | 1018.9 |
| 20260506073353 | 13 | 0 | 0.0 | 0.0 | 0.00 | 0.13 | 0.00 | 83 | 1018.7 |
| 20260506072832 | 13 | 0 | 0.0 | 0.0 | 0.00 | 0.13 | 0.00 | 83 | 1018.6 |
| 20260506071605 | 13 | 0 | 0.0 | 0.0 | 0.00 | 0.13 | 0.00 | 83 | 1018.7 |
| 20260506071043 | 13 | 0 | 0.0 | 0.0 | 0.00 | 0.13 | 0.00 | 83 | 1018.6 |
| 20260506070523 | 13 | 0 | 0.0 | 0.0 | 0.00 | 0.13 | 0.00 | 83 | 1018.5 |
| 20260506061900 | 13 | 0 | 0.0 | 0.0 | 0.00 | 0.13 | 0.13 | 82 | 1018.3 |
| 20260506061338 | 13 | 261 | 1.6 | 1.6 | 0.00 | 0.13 | 0.13 | 82 | 1018.3 |
| 20260506060110 | 13 | 0 | 0.0 | 3.2 | 0.00 | 0.13 | 0.13 | 82 | 1018.1 |
| 20260506051257 | 13 | 270 | 1.6 | 4.8 | 0.00 | 0.13 | 0.13 | 80 | 1017.8 |
| 20260506050737 | 13 | 267 | 1.6 | 3.2 | 0.00 | 0.13 | 0.13 | 80 | 1017.8 |
| 20260506044759 | 14 | 267 | 1.6 | 4.8 | 0.00 | 0.13 | 0.13 | 79 | 1017.6 |
| 20260506044238 | 14 | 271 | 1.6 | 4.8 | 0.00 | 0.13 | 0.13 | 79 | 1017.6 |
| 20260506043717 | 14 | 256 | 1.6 | 6.4 | 0.00 | 0.13 | 0.13 | 79 | 1017.5 |
| 20260506043155 | 14 | 273 | 1.6 | 4.8 | 0.00 | 0.13 | 0.13 | 79 | 1017.5 |
| 20260506042635 | 14 | 335 | 1.6 | 4.8 | 0.00 | 0.13 | 0.13 | 78 | 1017.5 |
| 20260506041405 | 14 | 328 | 3.2 | 8.0 | 0.00 | 0.13 | 0.13 | 78 | 1017.3 |
| 20260506040138 | 14 | 288 | 1.6 | 8.0 | 0.00 | 0.13 | 0.13 | 77 | 1017.1 |
| 20260506034908 | 14 | 297 | 1.6 | 4.8 | 0.00 | 0.13 | 0.13 | 77 | 1016.9 |
| 20260506034346 | 14 | 301 | 3.2 | 6.4 | 0.00 | 0.13 | 0.13 | 76 | 1016.9 |
| 20260506033823 | 15 | 242 | 1.6 | 6.4 | 0.00 | 0.13 | 0.13 | 76 | 1016.8 |
| 20260506033302 | 15 | 244 | 4.8 | 8.0 | 0.00 | 0.13 | 0.13 | 76 | 1016.8 |
| 20260506032739 | 15 | 269 | 1.6 | 9.7 | 0.00 | 0.13 | 0.13 | 76 | 1016.7 |
| 20260506032218 | 15 | 263 | 1.6 | 8.0 | 0.00 | 0.13 | 0.13 | 75 | 1016.5 |
| 20260506031657 | 15 | 181 | 1.6 | 9.7 | 0.00 | 0.13 | 0.13 | 75 | 1016.6 |
| 20260506031137 | 15 | 226 | 3.2 | 9.7 | 0.00 | 0.13 | 0.13 | 75 | 1016.6 |
| 20260506030618 | 15 | 260 | 3.2 | 8.0 | 0.00 | 0.13 | 0.13 | 74 | 1016.5 |
| 20260506025348 | 15 | 265 | 3.2 | 8.0 | 0.00 | 0.13 | 0.13 | 74 | 1016.4 |
| 20260506023409 | 15 | 273 | 1.6 | 8.0 | 0.00 | 0.13 | 0.13 | 73 | 1016.1 |
| 20260506022848 | 16 | 261 | 1.6 | 11.3 | 0.00 | 0.13 | 0.13 | 73 | 1016.0 |
| 20260506022325 | 16 | 270 | 3.2 | 9.7 | 0.00 | 0.13 | 0.13 | 72 | 1015.9 |
| 20260506021805 | 16 | 244 | 3.2 | 16.1 | 0.00 | 0.13 | 0.13 | 72 | 1015.9 |
| 20260506021245 | 16 | 254 | 6.4 | 12.9 | 0.00 | 0.13 | 0.13 | 72 | 1015.9 |
| 20260506020724 | 16 | 247 | 3.2 | 14.5 | 0.00 | 0.13 | 0.13 | 72 | 1016.0 |
| 20260506020203 | 16 | 254 | 3.2 | 8.0 | 0.00 | 0.13 | 0.13 | 71 | 1015.9 |
| 20260506015642 | 16 | 291 | 3.2 | 9.7 | 0.00 | 0.13 | 0.13 | 71 | 1015.9 |
| 20260506014412 | 16 | 254 | 3.2 | 11.3 | 0.00 | 0.13 | 0.13 | 71 | 1015.8 |
| 20260506013849 | 16 | 267 | 1.6 | 9.7 | 0.00 | 0.13 | 0.13 | 71 | 1015.7 |
| 20260506013330 | 16 | 218 | 1.6 | 8.0 | 0.00 | 0.13 | 0.13 | 71 | 1015.8 |
| 20260506012809 | 16 | 268 | 1.6 | 6.4 | 0.00 | 0.13 | 0.13 | 71 | 1015.8 |
| 20260506012248 | 16 | 213 | 1.6 | 8.0 | 0.00 | 0.13 | 0.13 | 71 | 1015.8 |
| 20260506011726 | 16 | 251 | 1.6 | 6.4 | 0.00 | 0.13 | 0.13 | 71 | 1015.8 |
| 20260506011203 | 16 | 288 | 1.6 | 16.1 | 0.00 | 0.13 | 0.13 | 70 | 1015.7 |
| 20260506010643 | 16 | 211 | 3.2 | 11.3 | 0.00 | 0.13 | 0.13 | 70 | 1015.7 |
| 20260506010122 | 16 | 205 | 3.2 | 8.0 | 0.00 | 0.13 | 0.13 | 70 | 1015.7 |
| 20260506005600 | 16 | 282 | 1.6 | 8.0 | 0.00 | 0.13 | 0.13 | 70 | 1015.7 |
| 20260506005037 | 16 | 305 | 3.2 | 9.7 | 0.00 | 0.13 | 0.13 | 70 | 1015.7 |
| 20260506003809 | 16 | 269 | 1.6 | 9.7 | 0.00 | 0.13 | 0.13 | 70 | 1015.6 |
| 20260506003249 | 16 | 208 | 3.2 | 9.7 | 0.00 | 0.13 | 0.13 | 70 | 1015.6 |